{"data":{"norad_id":61217,"epoch":"2026-09-21T21:31:40.598688Z","epoch_age_seconds":71409,"freshness":"FRESH","line1":"1 61217U 24171T   26264.89699767  .00002524  00000+0  93056-4 0  9992","line2":"2 61217  53.1590 130.0232 0002505  28.2341 331.8796 15.31715953113333","mean_motion":15.31715953,"eccentricity":0.0002505,"inclination_deg":53.159,"raan_deg":130.0232,"arg_perigee_deg":28.2341,"mean_anomaly_deg":331.8796,"bstar":9.3056e-5,"rev_number":11333,"period_min":94.01220880279,"perigee_km":468.97680880065,"apogee_km":472.40807235038,"semimajor_km":6848.8294405755,"source":"CELESTRAK","updated_at":"2026-09-22T09:00:49.343141Z"}}